Weather in Richmond

United States     37°33′22″N   77°27′37″W
temp.,
°C
wind,
m/s
gust,
m/s
humid.,
%
clouds,
%
prec.,
mm/h
press.,
hPa
HPBL,
m
12 may, wed
wed1223:00+16nne4854100 0.0 1021749
02:00+14n5945100 0.0 1023994
05:00+11n51043100 0.0 1024783
08:00+10n4945100 0.0 1026754
11:00+11n3642100 0.0 10261212
14:00+16nne3532100 0.0 10241836
17:00+17nne353268 0.0 10232281
20:00+13ene235041 0.0 102365
13 may, thu
thu1323:00+9ssw11670 0.0 102522
02:00+8nw23713 0.0 102577
05:00+8n29755 0.0 1025247
08:00+11nne37615 0.0 1027323
11:00+17nne34365 0.0 10261684
14:00+20nne34256 0.0 10252897
17:00+20nne332365 0.0 10232981
20:00+15nne23391 0.0 102472
14 may, fri
fri1423:00+11se11565 0.0 102619
02:00+10wsw22605 0.0 102532
05:00+8wnw23621 0.0 102663
08:00+12nw23543 0.0 1027213
11:00+19n23344 0.0 10262068
14:00+21nne232898 0.0 10242580
17:00+21ene123052 0.0 10232282
20:00+14nne246867 0.1 1025138
15 may, sat
sat1523:00+12ene127652 0.1 102533
02:00+12w117496 0.1 102540
05:00+12wnw1269100 0.0 102594
08:00+13nnw116696 0.0 1027197
11:00+18n114999 0.0 1027688
14:00+23sse1232100 0.0 10252732
17:00+19nnw124459 0.0 1024440
20:00+15s25653 0.0 1025149
16 may, sun
sun1623:00+12sw248013 0.0 102696
02:00+11ssw248359 0.0 102694
05:00+11sw128128 0.0 102642
08:00+15ssw2463100 0.0 1027236
11:00+21s234349 0.0 10271245
14:00+21sw354660 0.0 1025657
17:00+17wnw2572100 0.2 1024224
20:00+16ssw1482100 0.4 1025191